Harare Kutsaga, Zimbabwe

11:34 PM CAT on December 16, 2017 (GMT +0200)
Harare Kutsaga

Weather History for FVHA - April, 2014

Change the Weather History Date:

Tuesday, April 22, 2014

  Actual Average Record
Temperature  
Mean Temperature 65 °F -  
Max Temperature 79 °F 75 °F 84 °F (2016)
Min Temperature 51 °F 50 °F 47 °F (2012)
Growing Degree Days 15 (Base 50)    
Moisture  
Dew Point 51 °F    
Average Humidity 59    
Maximum Humidity 100    
Minimum Humidity 26    
Precipitation  
Precipitation 0.00 in 0.02 in - ()
Sea Level Pressure  
Sea Level Pressure 30.17 in    
Wind  
Wind Speed 5 mph ()    
Max Wind Speed 8 mph    
Max Gust Speed -    
Visibility 13.7 miles    
Events Fog    
Averages and records for this station are not official NWS values.
T = Trace of Precipitation, MM = Missing Value Source: Averaged Metar Reports

Daily Weather History Graph

Daily Weather History Graph

Search for Another Location

Airport or City:

Trip Planner

Search our weather history database for the weather conditions in past years. The results will help you decide how hot, cold, wet, or windy it might be!

Date:

Astronomy

Apr. 22, 2014 Rise Set
Actual Time 6:06 AM CAT 5:41 PM CAT
Civil Twilight 5:44 AM CAT 6:03 PM CAT
Nautical Twilight 5:18 AM CAT 6:29 PM CAT
Astronomical Twilight 4:53 AM CAT 6:54 PM CAT
Moon No Moon Rise 12:30 PM CAT (4/22)
Length of Visible Light 12h 19m
Length of Day
11h 34m
Waning Gibbous, 49% of the Moon is Illuminated
Apr 22
Waning Gibbous
Apr 29
New
May 7
First Quarter
May 14
Full
May 21
Last Quarter

Hourly Weather History & Observations

Time (CAT) Temp. Dew Point Humidity Pressure Visibility Wind Dir Wind Speed Gust Speed Precip Events Conditions
12:00 AM 57.2 °F 53.6 °F 88% 30.18 in - NE 5.8 mph - N/A   Clear
1:00 AM 53.6 °F 53.6 °F 100% 30.15 in - East 4.6 mph - N/A   Clear
4:00 AM 51.8 °F 50.0 °F 94% 30.15 in - ENE 3.5 mph - N/A   Clear
5:00 AM 53 °F 52 °F 94%  in 19 mi NE 5.8 mph - -  
5:00 AM 53.6 °F 51.8 °F 94% 30.15 in - NE 5.8 mph - N/A   Clear
6:00 AM 51.8 °F 51.8 °F 100% 30.18 in 5.0 mi ENE 4.6 mph - N/A Fog Patches of Fog
8:00 AM 62 °F 56 °F 74%  in 9 mi NE 8.1 mph - -   Haze
8:00 AM 60.8 °F 55.4 °F 82% 30.21 in - NE 8.1 mph - N/A   Clear
9:00 AM 68.0 °F 55.4 °F 64% 30.24 in - WNW 5.8 mph - N/A   Clear
10:00 AM 69.8 °F 53.6 °F 56% 30.24 in 6.2 mi NW 4.6 mph - N/A   Scattered Clouds
11:00 AM 72 °F 52 °F 39%  in 16 mi South 5.8 mph - -   Partly Cloudy
11:00 AM 71.6 °F 51.8 °F 50% 30.21 in 6.2 mi South 5.8 mph - N/A   Scattered Clouds
12:00 PM 75.2 °F 48.2 °F 38% 30.18 in - Variable 5.8 mph - N/A   Clear
1:00 PM 78.8 °F 46.4 °F 32% 30.15 in - Variable 5.8 mph - N/A   Clear
2:00 PM 76 °F 48 °F 26%  in 19 mi SW 4.6 mph - -   Partly Cloudy
2:00 PM 77.0 °F 48.2 °F 36% 30.15 in - SW 4.6 mph - N/A   Clear
3:00 PM 77.0 °F 46.4 °F 34% 30.12 in - NW 6.9 mph - N/A   Clear
4:00 PM 78.8 °F 46.4 °F 32% 30.12 in - East 6.9 mph - N/A   Clear
5:00 PM 76 °F 47 °F 26%  in 19 mi SSW 4.6 mph - -   Scattered Clouds
5:00 PM 75.2 °F 48.2 °F 38% 30.15 in - SSW 4.6 mph - N/A   Clear
6:00 PM 69.8 °F 50.0 °F 49% 30.15 in - NNE 4.6 mph - N/A   Clear
7:00 PM 66.2 °F 51.8 °F 60% 30.15 in - ENE 8.1 mph - N/A   Clear
8:00 PM 67 °F 50 °F 44%  in 19 mi North 6.9 mph - -   Scattered Clouds
8:00 PM 66.2 °F 50.0 °F 56% 30.18 in - North 6.9 mph - N/A   Clear
9:00 PM 62.6 °F 50.0 °F 63% 30.21 in - SSW 5.8 mph - N/A   Clear
10:00 PM 62.6 °F 50.0 °F 63% 30.21 in - NNE 8.1 mph - N/A   Clear
11:00 PM 60 °F 50 °F 62%  in 19 mi NE 6.9 mph - -  
11:00 PM 60.8 °F 50.0 °F 68% 30.18 in - NE 6.9 mph - N/A   Clear